Location: Cahas Mountain Overlook
(37.0833°N, 80.1000°W)
Time: 11:33:44
(UTC-04:00)

A-11 Canister half - Pass Details

Date: 16 February 2026
Orbit: 1524 x 1683 km, 47.3° (Epoch: 16 March)

Event Time Altitude Azimuth Distance (km) Brightness Sun altitude
Rises 22:53:18 0° 302° (WNW) 4,675 12.1 -56.2°
Reaches altitude 10° 22:56:19 10° 302° (WNW) 3,696 11.4 -56.6°
Enters shadow 22:58:29 19° 303° (WNW) 3,018 10.8 -57.0°
